Погода Сырдарья

Погода Сырдарья : погода сейчас, прогноз погоды и архив. Всё, что Вы хотите узнать о погоде Сырдарья!

Поиск расширенной информации на нашем сайте:

Другие новости

Новости СМИ2

Главная страница сайта

Новости сайта

03.07.2017

Напоминаем, что на нашем специализированном сайте Метеоцентр.Азия вы можете получить высокодетализированные автоматические прогнозы погоды по пунктам России, СНГ и мира в авиационном формате (включающие направление и скорость ветра, видимость, явления погоды, количество и форму облачности, нижнюю и верхнюю границу облачности).


Погода Сырдарья - сегодня

Время (UTC), дата Ветер
(°,м/с) 
Видим.   Явления Облачность Т
(°С)
Тd
(°С)
f(%) Тe
(°С)
Pmin
(гПа)
dP
(гПа)
Po
(мм)
O2
(г/м3)
Тmin Tmax R s Состояние
почвы
09 18.07.17 250 (З) 10 км    ясно 
+32.4 +14.3 33 +40  1010.4  -1  736  262           
12 18.07.17 тихо ()   10 км    ясно 
+34 +15.8 34 +45  1008.6  -1.5  735  260           
15 18.07.17 290 (З) 10 км    ясно 
+28.9 +16.8 48 +41  1009.2  0.1  735  264    +35       
18 18.07.17 320 (СЗ) 10 км    ясно 
+26.1 +4.8 25 +26  1010.1  0.5  735  270    +35       
21 18.07.17 320 (СЗ) 10 км    ясно 
+21.4 +6.7 38 +21  1009.9  -0.6  735  273           
00 19.07.17 290 (З) 10 км    ясно 
+17.3 +8.4 56 +19  1010.2  -0.1  735  277    +1.5       
03 19.07.17 320 (СЗ) 10 км    ясно 
+21.7 +12.2 55 +26  1010.9  0.5  751  278           
06 19.07.17 290 (З) 10 км    ясно 
+29.2 +13.4 38 +36  1010.1  735  265  +16.4         
09 19.07.17 020 (С) 10 км    ясно 
+34.3 +8.2 20 +34  1008.8  -0.7  735  262           
12 19.07.17 250 (З) 10 км    ясно 
+34.6 +11.2 24 +38  1006.8  -2  733  260           
15 19.07.17 270 (З) 10 км    ясно 
+28.9 +14.4 41 +37  1006.9  -0.4  733  264    +36.1       
18 19.07.17 340 (С) 10 км    ясно 
+26.5 +8.8 33 +27  1007  -0.1  733  268    +36.1       
21 19.07.17 360 (С) 10 км    ясно 
+21.2 +9.4 47 +22  1007  -0.5  733  272           
00 20.07.17 250 (З) 10 км    ясно 
+16.5 +10.5 68 +20  1007.4  -0.1  733  276    +1.6       
03 20.07.17 250 (З) 10 км    ясно 
+23.1 +13.9 56 +31  1006.6  0.5  733  269           
06 20.07.17 320 (СЗ) 10 км    ясно 
+28.3 +13.5 40 +35  1007.1  0.9  733  265  +15.9         
09 20.07.17 360 (С) 10 км    ясно 
+33.3 +11.1 26 +36  1005.3  -1.2  732  261           
12 20.07.17 250 (З) 10 км    ясно 
+35.6 +14.3 28 +44  1003.5  -1.5  731  258           
15 20.07.17 230 (ЮЗ) 10 км    ясно 
+30.5 +17.5 46 +45  1003.8  -0.2  731  261    +36.3       
18 20.07.17 250 (З) 10 км    ясно 
+22.9 +16.4 67 +35  1004.1  -0.4  731  268    +36.3       
21 20.07.17 110 (В) 10 км    ясно 
+19.5 +15.6 78 +31  1004.2  -0.2  731  271           
00 21.07.17 090 (В) 10 км    ясно 
+17.4 +14.6 84 +28  1005.1  0.5  731  274           
03 21.07.17 140 (ЮВ) 10 км    ясно 
+22.4 +15.9 67 +33  1005.8  1.2  732  269           
06 21.07.17 140 (ЮВ) 10 км    ясно 
+30.6 +17.3 45 +44  1005.1  0.2  732  261  +16         
09 21.07.17 290 (З) 10 км    3/0 верхняя 
[Ci fib]
+35.4 +16.4 32 +47  1004  -0.6  732  257           
Время (UTC), дата Ветер
(°,м/с) 
Видим.   Явления Облачность Т
(°С)
Тd
(°С)
f(%) Тe
(°С)
Pmin
(гПа)
dP
(гПа)
Po
(мм)
O2
(г/м3)
Тmin Tmax R s Состояние
почвы

Для получения пояснительной информации подведите курсор к названию столбца.

ПОГОДА Сырдарья - архив

Всё, что Вы хотите узнать о погоде Сырдарья - удобно и подробно!

Выберите нужную дату (начиная с 1 января 2015* года) и нажмите кнопку "Найти".
Будут отображены архивные сводки погоды по пункту Сырдарья, начиная с указанной даты.


Отображать данные в формате CSV (для использования в таблицах Excel)


Внимание! Наш архив погоды предназначен исключительно для личного некоммерческого использования в познавательных целях. Если Вам необходимы официальные справки о состоянии погоды (для производственных, юридических, коммерческих и т.п. целей), обращайтесь в органы Росгидромета.

*Примечание: данная дата относится к архиву по метеостанциям СССР (Россия, СНГ, Балтия).
Архив по метеостанциям Зарубежной Европы и Азии (кроме Китая) хранится 10 дней, по другим регионам земного шара (Китай, Африка, Америка, Австралия, Океания) - 1 день.

Сырдарья - район местоположения метеостанции


Название, широта, долгота, высота метеостанции:
Сырдарья 40.8°ш. 68.7°д. 264 м над ур. моря [Узбекистан]

Дополнительная информация

В oтличие oт бoльшинства пoгoдных сайтoв мы публикуем пoдрoбную метеoинфoрмацию в детальнoм прoфессиoнальнoм фoрмате.

Характеристики температуры и влажнoсти вoздуха измеряются на высoте 2 м в тени вдали oт зданий и деревьев.
Скoрoсть ветра измеряется на высoте 10 м (на урoвне рoста челoвека скoрoсть ветра ниже в 1.5-2 раза). Если метеoстанция нахoдится в гoрoде или в лесу, тo скoрoсть ветра занижена на 2-4 м/с пo сравнению с oткрытым местoм. Скoрoсть ветра над акватoриями крупных рек и oзёр, а также на вершинах хoлмoв на 2-5 м/с выше, чем в oбычных услoвиях.
Атмoсфернoе давление в разных тoчках местнoсти мoжет значительнo oтличаться oт давления на метеoстанции, в зависимoсти oт услoвий рельефа (при пoдъёме на 10 м давление пoнижается примернo на 1 мм рт.ст.).